Simultaneous Nadir Overpasses (SNOs) Predictions

Prediction of SNOs between LANDSAT-8 and METOP-B Satellite Orbit:

Table of predicted SNOs for the next 14.0 days since TLE Epoch: 6/12/2021
Index Date (LANDSAT-8) Time (LANDSAT-8) Lat,Lon (LANDSAT-8) SZA (LANDSAT-8 ) Date (METOP-B) Time (METOP-B) Lat,Lon (METOP-B) SZA (METOP-B ) Distance(km) Time Diff (sec)
1 06/14/2021 20:29:58 81.11, -87.73 59.95 06/14/2021 20:29:24 81.11, -87.70 59.94 0.55 34
2 06/14/2021 21:19:24 -81.12, 80.20 120.01 06/14/2021 21:20:04 -81.13, 80.15 119.99 0.81 40
3 06/17/2021 16:04:14 81.11, -21.25 59.85 06/17/2021 16:03:48 81.10, -21.43 59.82 3.02 26
4 06/17/2021 16:53:39 -81.13, 146.70 120.11 06/17/2021 16:54:26 -81.13, 146.83 120.07 2.35 47
5 06/20/2021 11:38:29 81.11, 45.19 59.80 06/20/2021 11:38:10 81.11, 45.21 59.79 0.39 19
6 06/20/2021 12:27:55 -81.13,-146.83 120.16 06/20/2021 12:28:50 -81.13,-146.88 120.14 0.88 55
7 06/23/2021 07:12:45 81.11, 111.61 59.79 06/23/2021 07:12:34 81.11, 111.46 59.77 2.58 11
8 06/23/2021 08:02:11 -81.13, -80.39 120.16 06/23/2021 08:03:13 -81.14, -80.23 120.11 2.78 62
9 06/26/2021 02:47:00 81.13, 178.37 59.89 06/26/2021 02:46:56 81.13, 178.45 59.90 1.52 4



Historial Predications of SNOs between LANDSAT-8 and METOP-B
